This is the latest recevied weather packets stored in our database for station/object WA1OUI. If no packets are shown the sender has not sent any weather packets the latest 10 day(s).
| Time | Temp. | Humidity | Pressure | Rain* | Wind** | Luminosity | Snow |
|---|---|---|---|---|---|---|---|
| 1777221533 | 13.33° C | 58% | 1018.7 hPa | 0 mm | - | 208 W/m² | - |
| 1777221230 | 13.33° C | 59% | 1018.7 hPa | 0 mm | - | 514 W/m² | - |
| 1777220926 | 12.78° C | 61% | 1018.8 hPa | 0 mm | - | 892 W/m² | - |
| 1777220616 | 12.78° C | 60% | 1018.9 hPa | 0 mm | - | 875 W/m² | - |
| 1777220314 | 12.22° C | 60% | 1018.9 hPa | 0 mm | - | 838 W/m² | - |
| 1777220013 | 11.67° C | 63% | 1018.7 hPa | 0 mm | - | 883 W/m² | - |
| 1777219710 | 11.67° C | 66% | 1018.7 hPa | 0 mm | - | 437 W/m² | - |
| 1777219408 | 12.22° C | 61% | 1018.7 hPa | 0 mm | - | 130 W/m² | - |
| 1777219104 | 12.22° C | 60% | 1018.8 hPa | 0 mm | - | 847 W/m² | - |
| 1777218799 | 12.22° C | 63% | 1018.9 hPa | 0 mm | - | 798 W/m² | - |
| 1777218495 | 11.67° C | 63% | 1018.6 hPa | 0 mm | - | 840 W/m² | - |
| 1777218191 | 11.67° C | 67% | 1018.8 hPa | 0.51 mm | - | 811 W/m² | - |
| 1777217888 | 11.67° C | 66% | 1018.6 hPa | 0 mm | - | 613 W/m² | - |
| 1777217583 | 11.11° C | 68% | 1018.6 hPa | 0 mm | - | 505 W/m² | - |
| 1777217279 | 10.56° C | 68% | 1018.6 hPa | 0 mm | - | 431 W/m² | - |
| 1777216975 | 11.11° C | 74% | 1018.7 hPa | 0 mm | - | 384 W/m² | - |
| 1777216672 | 11.11° C | 68% | 1018.7 hPa | 0 mm | - | 466 W/m² | - |
| 1777216368 | 10.56° C | 72% | 1018.8 hPa | 0 mm | - | 744 W/m² | - |
| 1777216067 | 10° C | 75% | 1018.6 hPa | 0 mm | - | 779 W/m² | - |
| 1777215762 | 10° C | 74% | 1018.6 hPa | 0 mm | - | 722 W/m² | - |
| 1777215459 | 10° C | 81% | 1018.8 hPa | 0 mm | - | 641 W/m² | - |
| 1777215155 | 9.44° C | 85% | 1018.6 hPa | 0 mm | - | 423 W/m² | - |
| 1777214850 | 9.44° C | 82% | 1018.6 hPa | 0 mm | - | 386 W/m² | - |
| 1777214549 | 8.89° C | 89% | 1018.5 hPa | 0 mm | - | 348 W/m² | - |
| 1777214245 | 8.89° C | 87% | 1018.4 hPa | 0 mm | - | 233 W/m² | - |
* Rain latest hour (hover to see other rain measurements)
** Current wind speed in m/s (hover to see current wind gust speed)